Hourly Data Report for May 27, 2017

TORONTO CITY
ONTARIO

43°40'00.000" N
79°24'00.000" W
112.50 m
6158355
71508
XTO

Download Data

Hourly Data (May 2017)
Hourly Data Report for May 27, 2017
TIME
LST
Temp Definition
°C
Dew Point Definition
°C
Rel Hum Definition
%
Precip. Amount Definition
mm

Wind Dir Definition
10's deg

Wind Spd Definition
km/h
Visibility Definition
km
Stn Press Definition
kPa
Hmdx Definition


Wind Chill Definition


Weather Definition


00:00 15.4 11.8 79 0.0 LegendMM LegendMM   99.76     LegendNANA
01:00 15.2 11.9 81 0.0 LegendMM LegendMM   99.78     LegendNANA
02:00 15.2 11.6 79 0.0 LegendMM LegendMM   99.82     LegendNANA
03:00 14.9 11.8 82 0.0 LegendMM LegendMM   99.79     LegendNANA
04:00 14.8 11.8 82 0.0 LegendMM LegendMM   99.81     LegendNANA
05:00 14.7 11.9 83 0.0 LegendMM LegendMM   99.81     LegendNANA
06:00 15.1 11.7 80 0.0 LegendMM LegendMM   99.87     LegendNANA
07:00 15.5 11.4 77 0.0 LegendMM LegendMM   99.88     LegendNANA
08:00 16.4 11.9 74 0.0 LegendMM LegendMM   99.89     LegendNANA
09:00 17.8 11.8 68 0.0 LegendMM LegendMM   99.89     LegendNANA
10:00 17.4 11.9 70 0.0 LegendMM LegendMM   99.89     LegendNANA
11:00 16.8 12.1 74 0.0 LegendMM LegendMM   99.94     LegendNANA
12:00 16.0 11.9 77 0.0 LegendMM LegendMM   99.99     LegendNANA
13:00 16.5 12.3 76 0.0 LegendMM LegendMM   99.94     LegendNANA
14:00 17.2 12.0 71 0.0 LegendMM LegendMM   99.90     LegendNANA
15:00 17.9 11.9 68 0.0 LegendMM LegendMM   99.90     LegendNANA
16:00 18.5 12.0 66 0.0 LegendMM LegendMM   99.89     LegendNANA
17:00 17.9 11.7 67 0.0 LegendMM LegendMM   99.93     LegendNANA
18:00 17.4 12.2 72 0.0 LegendMM LegendMM   99.93     LegendNANA
19:00 16.4 11.3 72 0.0 LegendMM LegendMM   99.92     LegendNANA
20:00 14.9 11.6 81 0.0 LegendMM LegendMM   99.91     LegendNANA
21:00 14.8 11.7 82 0.0 LegendMM LegendMM   99.91     LegendNANA
22:00 14.8 11.7 82 0.0 LegendMM LegendMM   99.91     LegendNANA
23:00 15.1 11.7 81 0.0 LegendMM LegendMM   99.96     LegendNANA

Notes on Data Quality.

Legend

  • E = Estimated
  • M = Missing
  • NA = Not Available*
  • [empty] = Indicates an unobserved value
Date modified: